STARLINK-4679, 53782

Orbit data source: Space-Track

STARLINK-4679, 53782 is a payload satellite owned by SpaceX/Seattle (US) in LEO that was launched on Sun, 11 Sep 2022 UTC via an FALCON 9 launch vehicle from the Air Force Eastern Test Range (AFETR). Payload-class satellites include a variety of spacecraft equipped with specific instruments for various scientific and technological missions. These include communications satellites like Starlink; space stations such as the ISS; scientific satellites like the Hubble; Earth observation satellites from companies like Planet Labs, Umbra, and HawkEye 360; GPS; miniature CubeSats for education and research; and military/defense satellites.

Loading next visibility...
Identifier
53782, 2022-111K
Orbit
LEO
Country
Flag of USUS
Related business
Manufacturer
SpaceX/Seattle
Mission
Partially operational Commercial Communications
Bus & Motor
STARLINK, Unknown motor
Mass
305 kg wet, ~290 kg dry
Launch date (UTC)
2022-09-11 (4 years ago)
Launch vehicle
FALCON 9
Launch site
Air Force Eastern Test Range (AFETR)
Object type
Payload
Rocket body
Debris
Shape & HBR
Box + 1 Pan, 10.1 m
Radar Cross Section
13.562 m², Large (>1 m²)

Expand to show TLE details & history
Last TLE update: 4 hours ago

TLE from 4 hours ago
0 STARLINK-4679
1 53782U 22111K   26128.16668980  .00232373  00000-0  27874-2 0  9995
2 53782  53.2167 356.8741 0000531  95.8134 163.5825 15.59632226  5808
Epoch: 2026-05-08T04:00Z
TLE epoch observation values (Epoch: 2026-05-08T04:00:01.998Z)
Latitude
-52.08903°
Longitude
-36.45704°
Altitude
407.129 km
Speed
7.666 km/s
True Right ascension
16h 38m 12s
True Declination
-51° 54' 49"
Sunlit
Object was in full shadow at epoch
Visualization orbit readout
Latitude
Unknown
Longitude
Unknown
Altitude
Unknown
Speed
Unknown
Apparent Right ascension
Unknown
Apparent Declination
Unknown
Sunlit
N/A
Visualization observer readout
Local Sidereal Time
16:08:10
Azimuth
Unknown
Elevation
Unknown
Doppler factor
Unknown
Orbital elements
Apogee altitude
389.33 km
Perigee altitude
388.612 km
Semi-major axis
6,767.108 km
Eccentricity
0.00005
Inclination
53.2167°
RAAN
356.8741°
Arg. of periapsis
95.8134°
True anomaly
163.58422°
Mean anomaly
163.5825°
Eccentric anomaly
163.58336°
Mean motion
3.89887 °/min
Orbital period
92.33 mins
BSTAR
0.0027874
Loading maneuver chart data...
Computing Atmospheric mass density...
Loading historical data...
Loading historical data...
Loading historical data...
Loading historical data...
Loading historical data...
Loading historical data...
Loading historical data...

Documentation

Showing up to 5 results
|